This is the latest recevied weather packets stored in our database for station/object K5NAN. If no packets are shown the sender has not sent any weather packets the latest 10 day(s).
| Time | Temp. | Humidity | Pressure | Rain* | Wind** | Luminosity | Snow |
|---|---|---|---|---|---|---|---|
| 1777400103 | 26.11° C | 85% | 1010.8 hPa | 0 mm | - | 608 W/m² | - |
| 1777399800 | 25.56° C | 87% | 1010.8 hPa | 0 mm | - | 393 W/m² | - |
| 1777399497 | 25.56° C | 87% | 1010.9 hPa | 0 mm | - | 296 W/m² | - |
| 1777399195 | 25.56° C | 86% | 1011 hPa | 0 mm | - | 282 W/m² | - |
| 1777398891 | 25.56° C | 85% | 1011.1 hPa | 0 mm | - | 227 W/m² | - |
| 1777398589 | 26.11° C | 85% | 1011.2 hPa | 0 mm | - | 392 W/m² | - |
| 1777398284 | 26.11° C | 85% | 1011.2 hPa | 0 mm | - | 420 W/m² | - |
| 1777397983 | 25.56° C | 86% | 1011.2 hPa | 0 mm | - | 470 W/m² | - |
| 1777397678 | 26.11° C | 85% | 1011.3 hPa | 0 mm | - | 334 W/m² | - |
| 1777397374 | 25.56° C | 85% | 1011.2 hPa | 0 mm | - | 425 W/m² | - |
| 1777397071 | 25.56° C | 85% | 1011.5 hPa | 0 mm | - | 303 W/m² | - |
| 1777396768 | 25.56° C | 87% | 1011.4 hPa | 0 mm | - | 400 W/m² | - |
| 1777396465 | 25.56° C | 87% | 1011.7 hPa | 0 mm | - | 221 W/m² | - |
| 1777396161 | 25° C | 87% | 1011.7 hPa | 0 mm | - | 241 W/m² | - |
| 1777395857 | 25° C | 87% | 1011.8 hPa | 0 mm | - | 237 W/m² | - |
| 1777395553 | 25° C | 88% | 1011.9 hPa | 0 mm | - | 138 W/m² | - |
| 1777395249 | 25° C | 87% | 1012 hPa | 0 mm | - | 124 W/m² | - |
| 1777394948 | 25° C | 87% | 1011.9 hPa | 0 mm | - | 93 W/m² | - |
| 1777394643 | 25° C | 87% | 1012 hPa | 0 mm | - | 139 W/m² | - |
| 1777394340 | 25° C | 87% | 1012 hPa | 0 mm | - | 157 W/m² | - |
| 1777394036 | 25° C | 88% | 1012 hPa | 0 mm | - | 176 W/m² | - |
| 1777393730 | 25° C | 88% | 1012 hPa | 0 mm | - | 181 W/m² | - |
| 1777393425 | 24.44° C | 88% | 1012.1 hPa | 0 mm | - | 135 W/m² | - |
| 1777393122 | 24.44° C | 88% | 1012 hPa | 0 mm | - | 120 W/m² | - |
| 1777392818 | 24.44° C | 89% | 1012.1 hPa | 0 mm | - | 117 W/m² | - |
* Rain latest hour (hover to see other rain measurements)
** Current wind speed in m/s (hover to see current wind gust speed)